Location: ??
(31.9467°N, 34.8903°E)
Time: 01:43:35
(UTC+00:00)

Cosmos 2360 - Pass Details

Date: 29 October 2020
Orbit: 848 x 855 km, 70.8° (Epoch: 25 November)

Event Time Altitude Azimuth Distance (km) Brightness Sun altitude
Rises 16:06:18 0° 203° (SSW) 3,408 7.8 -16.1°
Reaches altitude 10° 16:08:45 10° 204° (SSW) 2,475 7.0 -16.6°
Maximum altitude 16:14:26 77° 290° (WNW) 879 4.4 -17.8°
Drops below altitude 10° 16:20:09 10° 17° (NNE) 2,486 6.4 -19.0°
Enters shadow 16:22:31 - 19° (NNE) 3,384 7.1 -19.5°
